| time (UTC) | temp F | wind direction | speed MPH | gust MPH | rain 1hr in | rain 24hr in | rain mn in | humidity % | barometer mb |
| 20260506001558 | 57 | 234 | 10.0 | 20.0 | 0.00 | 0.00 | 0.00 | 43 | 997.7 |
| 20260506000100 | 57 | 224 | 5.0 | 19.0 | 0.00 | 0.00 | 0.00 | 42 | 997.6 |
| 20260505234555 | 56 | 240 | 10.0 | 17.0 | 0.00 | 0.00 | 0.00 | 45 | 997.5 |
| 20260505233054 | 58 | 223 | 10.0 | 17.0 | 0.00 | 0.00 | 0.00 | 43 | 997.3 |
| 20260505231556 | 56 | 224 | 11.0 | 22.0 | 0.00 | 0.00 | 0.00 | 44 | 997.4 |
| 20260505230059 | 56 | 219 | 12.0 | 24.0 | 0.00 | 0.00 | 0.00 | 44 | 997.1 |
| 20260505224553 | 56 | 225 | 10.0 | 21.0 | 0.00 | 0.00 | 0.00 | 45 | 996.9 |
| 20260505223052 | 57 | 205 | 12.0 | 18.0 | 0.00 | 0.00 | 0.00 | 43 | 997.0 |
| 20260505221601 | 58 | 211 | 9.0 | 16.0 | 0.00 | 0.00 | 0.00 | 42 | 997.1 |
| 20260505220100 | 59 | 216 | 10.0 | 16.0 | 0.00 | 0.00 | 0.00 | 39 | 997.1 |
| 20260505214553 | 60 | 217 | 6.0 | 14.0 | 0.00 | 0.00 | 0.00 | 39 | 997.1 |
| 20260505213048 | 59 | 217 | 5.0 | 16.0 | 0.00 | 0.00 | 0.00 | 41 | 997.5 |
| 20260505211545 | 58 | 219 | 7.0 | 16.0 | 0.00 | 0.00 | 0.00 | 42 | 997.7 |
| 20260505210049 | 58 | 220 | 6.0 | 16.0 | 0.00 | 0.00 | 0.00 | 43 | 997.8 |
| 20260505204550 | 57 | 226 | 8.0 | 16.0 | 0.00 | 0.00 | 0.00 | 44 | 998.3 |
| 20260505203038 | 57 | 226 | 10.0 | 17.0 | 0.00 | 0.00 | 0.00 | 45 | 998.5 |
| 20260505201540 | 56 | 226 | 4.0 | 13.0 | 0.00 | 0.00 | 0.00 | 48 | 998.7 |
| 20260505200037 | 55 | 226 | 7.0 | 16.0 | 0.00 | 0.00 | 0.00 | 50 | 998.6 |
| 20260505194537 | 53 | 226 | 7.0 | 14.0 | 0.00 | 0.00 | 0.00 | 52 | 998.5 |
| 20260505193042 | 55 | 223 | 7.0 | 14.0 | 0.00 | 0.00 | 0.00 | 48 | 998.5 |
| 20260505191536 | 55 | 217 | 6.0 | 13.0 | 0.00 | 0.00 | 0.00 | 49 | 998.7 |
| 20260505190039 | 52 | 211 | 6.0 | 20.0 | 0.00 | 0.00 | 0.00 | 57 | 998.7 |
| 20260505184534 | 56 | 222 | 9.0 | 18.0 | 0.00 | 0.00 | 0.00 | 41 | 998.4 |
| 20260505183045 | 56 | 252 | 7.0 | 11.0 | 0.00 | 0.00 | 0.00 | 39 | 998.4 |
| 20260505181532 | 56 | 276 | 6.0 | 16.0 | 0.00 | 0.00 | 0.00 | 38 | 998.4 |
| 20260505180032 | 57 | 296 | 6.0 | 13.0 | 0.00 | 0.00 | 0.00 | 36 | 998.4 |
| 20260505174530 | 55 | 303 | 6.0 | 11.0 | 0.00 | 0.00 | 0.00 | 38 | 998.5 |
| 20260505173029 | 56 | 304 | 6.0 | 10.0 | 0.00 | 0.00 | 0.00 | 37 | 998.7 |
| 20260505171528 | 55 | 304 | 2.0 | 6.0 | 0.00 | 0.00 | 0.00 | 39 | 998.8 |
| 20260505170029 | 53 | 304 | 1.0 | 9.0 | 0.00 | 0.00 | 0.00 | 41 | 998.7 |
| 20260505164531 | 53 | 304 | 5.0 | 11.0 | 0.00 | 0.00 | 0.00 | 42 | 999.0 |
| 20260505163021 | 52 | 306 | 5.0 | 11.0 | 0.00 | 0.00 | 0.00 | 43 | 999.2 |
| 20260505161520 | 51 | 312 | 6.0 | 9.0 | 0.00 | 0.00 | 0.00 | 45 | 999.3 |
| 20260505153016 | 51 | 312 | 3.0 | 11.0 | 0.00 | 0.00 | 0.00 | 45 | 999.4 |
| 20260505151515 | 52 | 313 | 5.0 | 11.0 | 0.00 | 0.00 | 0.00 | 44 | 999.4 |
| 20260505124503 | 50 | 321 | 4.0 | 9.0 | 0.00 | 0.00 | 0.00 | 47 | 999.8 |
| 20260505123101 | 49 | 300 | 3.0 | 6.0 | 0.00 | 0.00 | 0.00 | 43 | 999.7 |
| 20260505121555 | 48 | 300 | 4.0 | 8.0 | 0.00 | 0.00 | 0.00 | 43 | 999.3 |
| 20260505114552 | 49 | 300 | 0.0 | 4.0 | 0.00 | 0.00 | 0.00 | 41 | 999.2 |
| 20260505113109 | 48 | 300 | 1.0 | 4.0 | 0.00 | 0.00 | 0.00 | 42 | 999.5 |
| 20260505111547 | 49 | 300 | 1.0 | 4.0 | 0.00 | 0.00 | 0.00 | 41 | 999.4 |
| 20260505101542 | 50 | 300 | 0.0 | 3.0 | 0.00 | 0.00 | 0.00 | 37 | 999.1 |
| 20260505100038 | 51 | 300 | 1.0 | 5.0 | 0.00 | 0.00 | 0.00 | 36 | 998.9 |
| 20260505094537 | 52 | 300 | 3.0 | 8.0 | 0.00 | 0.00 | 0.00 | 36 | 999.0 |
| 20260505093035 | 51 | 301 | 5.0 | 8.0 | 0.00 | 0.00 | 0.00 | 37 | 999.1 |
| 20260505091533 | 51 | 301 | 1.0 | 6.0 | 0.00 | 0.00 | 0.00 | 38 | 999.1 |
| 20260505090031 | 52 | 301 | 2.0 | 5.0 | 0.00 | 0.00 | 0.00 | 37 | 999.2 |
| 20260505084542 | 51 | 301 | 1.0 | 4.0 | 0.00 | 0.00 | 0.00 | 35 | 999.4 |
| 20260505083027 | 52 | 301 | 0.0 | 3.0 | 0.00 | 0.00 | 0.00 | 34 | 999.6 |
| 20260505081525 | 53 | 301 | 0.0 | 2.0 | 0.00 | 0.00 | 0.00 | 33 | 1000.0 |
| 20260505080023 | 53 | 301 | 0.0 | 2.0 | 0.00 | 0.00 | 0.00 | 32 | 1000.0 |
| 20260505074520 | 54 | 301 | 0.0 | 3.0 | 0.00 | 0.00 | 0.00 | 31 | 1000.0 |
| 20260505073017 | 55 | 301 | 1.0 | 5.0 | 0.00 | 0.00 | 0.00 | 30 | 999.8 |
| 20260505071513 | 56 | 301 | 2.0 | 7.0 | 0.00 | 0.00 | 0.00 | 29 | 999.5 |
| 20260505070011 | 56 | 298 | 5.0 | 12.0 | 0.00 | 0.00 | 0.00 | 28 | 999.7 |
| 20260505064508 | 56 | 298 | 6.0 | 12.0 | 0.00 | 0.00 | 0.00 | 29 | 999.7 |
| 20260505063006 | 56 | 298 | 2.0 | 6.0 | 0.00 | 0.00 | 0.00 | 30 | 999.7 |
| 20260505061507 | 56 | 298 | 2.0 | 5.0 | 0.00 | 0.00 | 0.00 | 30 | 999.7 |
| 20260505060003 | 57 | 298 | 1.0 | 7.0 | 0.00 | 0.00 | 0.00 | 30 | 999.8 |
| 20260505054501 | 57 | 298 | 4.0 | 8.0 | 0.00 | 0.00 | 0.00 | 30 | 999.6 |
| 20260505053001 | 57 | 302 | 2.0 | 9.0 | 0.00 | 0.00 | 0.00 | 30 | 999.6 |
| 20260505051600 | 58 | 303 | 1.0 | 5.0 | 0.00 | 0.00 | 0.00 | 31 | 999.7 |
| 20260505050109 | 58 | 303 | 3.0 | 6.0 | 0.00 | 0.00 | 0.00 | 30 | 999.8 |
| 20260505041558 | 58 | 303 | 0.0 | 0.0 | 0.00 | 0.00 | 0.00 | 29 | 1000.1 |
| 20260505040059 | 58 | 303 | 0.0 | 7.0 | 0.00 | 0.00 | 0.00 | 28 | 1000.2 |
| 20260505034617 | 58 | 303 | 1.0 | 3.0 | 0.00 | 0.00 | 0.00 | 27 | 1000.2 |
| 20260505033058 | 59 | 303 | 0.0 | 6.0 | 0.00 | 0.00 | 0.00 | 26 | 1000.1 |
| 20260505031558 | 60 | 303 | 1.0 | 6.0 | 0.00 | 0.00 | 0.00 | 25 | 999.9 |
| 20260505030059 | 60 | 303 | 3.0 | 9.0 | 0.00 | 0.00 | 0.00 | 24 | 999.6 |
| 20260505024557 | 61 | 302 | 3.0 | 11.0 | 0.00 | 0.00 | 0.00 | 23 | 999.4 |
| 20260505023100 | 61 | 301 | 4.0 | 9.0 | 0.00 | 0.00 | 0.00 | 22 | 999.3 |
| 20260505021556 | 62 | 300 | 4.0 | 9.0 | 0.00 | 0.00 | 0.00 | 21 | 999.1 |
| 20260505020058 | 62 | 300 | 5.0 | 11.0 | 0.00 | 0.00 | 0.00 | 19 | 999.2 |
| 20260505014554 | 63 | 296 | 4.0 | 13.0 | 0.00 | 0.00 | 0.00 | 19 | 999.0 |
| 20260505013054 | 63 | 286 | 7.0 | 16.0 | 0.00 | 0.00 | 0.00 | 18 | 998.7 |
| 20260505011609 | 64 | 284 | 5.0 | 11.0 | 0.00 | 0.00 | 0.00 | 18 | 998.7 |
| 20260505010054 | 64 | 272 | 4.0 | 13.0 | 0.00 | 0.00 | 0.00 | 17 | 998.7 |
| 20260505004602 | 65 | 295 | 7.0 | 13.0 | 0.00 | 0.00 | 0.00 | 17 | 998.8 |
| 20260505003055 | 65 | 268 | 6.0 | 14.0 | 0.00 | 0.00 | 0.00 | 16 | 999.0 |